Wisconsin Rapids, WI

7:39 PM CDT on August 19, 2017 (GMT -0500)
Alexander Field South Wood County

Weather History for KISW - May, 2014

Change the Weather History Date:

Monday, May 12, 2014

  Actual Average Record
Temperature  
Mean Temperature 66 °F -  
Max Temperature 75 °F 66 °F 87 °F (1977)
Min Temperature 57 °F 41 °F 27 °F (1967)
Cooling Degree Days 1    
Growing Degree Days 16 (Base 50)    
Moisture  
Dew Point 60 °F    
Average Humidity 89    
Maximum Humidity 97    
Minimum Humidity 62    
Precipitation  
Precipitation 1.15 in - - ()
Sea Level Pressure  
Sea Level Pressure 29.82 in    
Wind  
Wind Speed 8 mph (SE)    
Max Wind Speed 14 mph    
Max Gust Speed -    
Visibility 7 miles    
Events Rain , Thunderstorm    
Averages and records for this station are not official NWS values.
T = Trace of Precipitation, MM = Missing Value Source: NWS Daily Summary

Daily Weather History Graph

Daily Weather History Graph

Search for Another Location

Airport or City:

Trip Planner

Search our weather history database for the weather conditions in past years. The results will help you decide how hot, cold, wet, or windy it might be!

Date:

Astronomy

May. 12, 2014 Rise Set
Actual Time 5:35 AM CDT 8:16 PM CDT
Civil Twilight 5:02 AM CDT 8:49 PM CDT
Nautical Twilight 4:20 AM CDT 9:32 PM CDT
Astronomical Twilight 3:32 AM CDT 10:20 PM CDT
Moon 6:09 PM CDT (5/12) 4:20 AM CDT (5/12)
Length of Visible Light 15h 47m
Length of Day
14h 40m
Waxing Gibbous, 95% of the Moon is Illuminated
May 12
Waxing Gibbous
May 14
Full
May 21
Last Quarter
May 28
New
Jun 5
First Quarter

Hourly Weather History & Observations

Time (CDT) Temp. Dew Point Humidity Pressure Visibility Wind Dir Wind Speed Gust Speed Precip Events Conditions
12:54 AM 61.0 °F 59.0 °F 93% 29.85 in 10.0 mi East 8.1 mph - 0.02 in Thunderstorm Overcast
1:17 AM 61.0 °F 59.0 °F 93% 29.85 in 10.0 mi East 9.2 mph - N/A   Overcast
1:54 AM 62.1 °F 59.0 °F 90% 29.80 in 10.0 mi East 12.7 mph - N/A   Overcast
2:38 AM 62.1 °F 57.9 °F 86% 29.81 in 10.0 mi SE 11.5 mph - 0.00 in Rain , Thunderstorm Light Rain
2:54 AM 61.0 °F 59.0 °F 93% 29.80 in 4.0 mi ESE 11.5 mph - 0.07 in Rain , Thunderstorm Rain
3:08 AM 61.0 °F 59.0 °F 93% 29.83 in 5.0 mi ESE 10.4 mph - 0.04 in Rain , Thunderstorm Thunderstorms and Rain
3:19 AM 61.0 °F 59.0 °F 93% 29.82 in 5.0 mi East 5.8 mph - 0.06 in Rain , Thunderstorm Thunderstorms and Rain
3:33 AM 61.0 °F 59.0 °F 93% 29.86 in 2.5 mi Variable 3.5 mph - 0.16 in Rain , Thunderstorm Thunderstorms and Rain
3:40 AM 60.1 °F 59.0 °F 96% 29.84 in 1.0 mi NNW 9.2 mph - 0.32 in Rain , Thunderstorm Heavy Thunderstorms and Rain
3:52 AM 60.8 °F 59.0 °F 94% 29.88 in 0.8 mi Calm Calm - 0.71 in Rain , Thunderstorm Heavy Thunderstorms and Rain
3:54 AM 60.1 °F 59.0 °F 96% 29.87 in 0.8 mi Calm Calm - 0.72 in Rain , Thunderstorm Heavy Thunderstorms and Rain
3:57 AM 60.1 °F 59.0 °F 96% 29.86 in 1.2 mi North 4.6 mph - 0.02 in Rain , Thunderstorm Heavy Thunderstorms and Rain
4:06 AM 60.1 °F 59.0 °F 96% 29.84 in 3.0 mi East 8.1 mph - 0.06 in Rain , Thunderstorm Heavy Thunderstorms and Rain
4:12 AM 60.1 °F 59.0 °F 96% 29.84 in 4.0 mi East 5.8 mph - 0.08 in Rain , Thunderstorm Rain
4:24 AM 60.1 °F 59.0 °F 96% 29.83 in 8.0 mi East 8.1 mph - 0.08 in Rain Light Rain
4:54 AM 60.1 °F 59.0 °F 96% 29.81 in 9.0 mi East 9.2 mph - 0.08 in   Overcast
5:01 AM 60.1 °F 59.0 °F 96% 29.79 in 9.0 mi East 11.5 mph - 0.00 in Rain Light Rain
5:46 AM 59.0 °F 57.0 °F 93% 29.78 in 10.0 mi East 13.8 mph - 0.01 in Rain Light Rain
5:54 AM 59.0 °F 57.0 °F 93% 29.78 in 10.0 mi East 10.4 mph - 0.01 in Rain Light Rain
6:54 AM 57.9 °F 55.9 °F 93% 29.81 in 10.0 mi ESE 4.6 mph - 0.00 in   Overcast
7:54 AM 57.9 °F 57.0 °F 97% 29.81 in 8.0 mi SE 8.1 mph - N/A   Overcast
9:05 AM 61.0 °F 59.0 °F 93% 29.81 in 4.0 mi SE 6.9 mph - N/A   Overcast
9:54 AM 61.0 °F 60.1 °F 97% 29.86 in 4.0 mi South 5.8 mph - 0.00 in   Overcast
10:15 AM 61.0 °F 60.1 °F 97% 29.88 in 3.0 mi South 5.8 mph - 0.03 in Rain , Thunderstorm Light Rain
10:29 AM 61.0 °F 60.1 °F 97% 29.89 in 2.0 mi SW 5.8 mph - 0.07 in Rain Rain
10:37 AM 61.0 °F 60.1 °F 97% 29.90 in 1.2 mi SSW 5.8 mph - 0.12 in Rain Heavy Rain
10:54 AM 61.0 °F 60.1 °F 97% 29.88 in 1.5 mi Calm Calm - 0.21 in Rain Heavy Rain
11:03 AM 62.1 °F 60.1 °F 93% 29.85 in 2.5 mi East 5.8 mph - 0.02 in Rain Light Rain
11:11 AM 62.1 °F 60.1 °F 93% 29.84 in 5.0 mi East 8.1 mph - 0.03 in Rain Light Rain
11:30 AM 63.0 °F 61.0 °F 93% 29.82 in 7.0 mi ESE 6.9 mph - 0.03 in   Mostly Cloudy
11:54 AM 63.0 °F 62.1 °F 97% 29.82 in 9.0 mi SSE 4.6 mph - 0.03 in   Overcast
12:09 PM 63.0 °F 61.0 °F 93% 29.83 in 10.0 mi South 5.8 mph - N/A   Overcast
12:24 PM 64.0 °F 62.1 °F 93% 29.84 in 10.0 mi South 6.9 mph - N/A   Overcast
12:43 PM 64.0 °F 62.1 °F 93% 29.83 in 10.0 mi South 10.4 mph - 0.00 in Rain Light Rain
12:54 PM 64.0 °F 62.1 °F 93% 29.80 in 10.0 mi SE 6.9 mph - 0.00 in Rain Light Rain
1:54 PM 68.0 °F 62.1 °F 81% 29.76 in 10.0 mi SSE 8.1 mph - 0.00 in   Partly Cloudy
2:54 PM 71.1 °F 63.0 °F 75% 29.80 in 10.0 mi SE 8.1 mph - N/A   Mostly Cloudy
3:32 PM 73.0 °F 63.0 °F 71% 29.80 in 10.0 mi South 10.4 mph - N/A   Scattered Clouds
3:41 PM 73.0 °F 63.0 °F 71% 29.80 in 10.0 mi South 5.8 mph - N/A   Mostly Cloudy
3:54 PM 75.0 °F 64.0 °F 69% 29.80 in 10.0 mi SSW 10.4 mph - N/A   Mostly Cloudy
4:54 PM 75.9 °F 62.1 °F 62% 29.76 in 10.0 mi South 9.2 mph - N/A   Partly Cloudy
5:54 PM 75.9 °F 63.0 °F 64% 29.76 in 10.0 mi South 6.9 mph - N/A   Clear
6:54 PM 73.9 °F 64.0 °F 71% 29.74 in 10.0 mi SSE 3.5 mph - N/A   Clear
7:54 PM 71.1 °F 64.0 °F 78% 29.74 in 10.0 mi ESE 4.6 mph - N/A   Clear
8:54 PM 71.1 °F 64.9 °F 81% 29.73 in 10.0 mi SE 8.1 mph - N/A   Scattered Clouds
9:54 PM 71.1 °F 66.0 °F 84% 29.73 in 10.0 mi SE 8.1 mph - N/A   Clear
10:54 PM 64.0 °F 62.1 °F 93% 29.78 in 8.0 mi East 9.2 mph - N/A   Mostly Cloudy
11:13 PM 64.0 °F 62.1 °F 93% 29.78 in 7.0 mi ESE 9.2 mph - N/A   Overcast
11:54 PM 63.0 °F 61.0 °F 93% 29.79 in 5.0 mi SE 8.1 mph - 0.01 in Rain Light Rain